Camden, NC

5:21 PM EST on February 07, 2016 (GMT -0500)
Elizabeth City Cgas-Regional

Weather History for KECG - February, 2013

Change the Weather History Date:

Thursday, February 7, 2013

  Actual Average Record
Temperature  
Mean Temperature 49 °F 43 °F  
Max Temperature 56 °F 53 °F 71 °F (2008)
Min Temperature 41 °F 34 °F 12 °F (1996)
Degree Days  
Heating Degree Days 16 22  
Month to date heating degree days 159 155  
Since 1 July heating degree days 1622 2042  
Cooling Degree Days 0 0  
Month to date cooling degree days 0 0  
Year to date cooling degree days 5 1  
Moisture  
Dew Point 39 °F    
Average Humidity 69    
Maximum Humidity 82    
Minimum Humidity 55    
Precipitation  
Precipitation T in 0.11 in 1.05 in (1941)
Month to date precipitation 0.09 0.80  
Year to date precipitation 1.49 4.06  
Snow  
Snow 0.00 in - 3.50 in (1936)
Month to date snowfall 0.0  
Since 1 July snowfall 0.0  
Snow Depth 0.00 in    
Sea Level Pressure  
Sea Level Pressure 30.27 in    
Wind  
Wind Speed 13 mph (NE)    
Max Wind Speed 23 mph    
Max Gust Speed 31 mph    
Visibility 10 miles    
Events Rain    
T = Trace of Precipitation, MM = Missing Value Source: NWS Daily Summary

Daily Weather History Graph

Daily Weather History Graph

Search for Another Location

Airport or City:

Trip Planner

Search our weather history database for the weather conditions in past years. The results will help you decide how hot, cold, wet, or windy it might be!

Date:

Astronomy

Feb. 07, 2013 Rise Set
Actual Time 7:00 AM EST 5:37 PM EST
Civil Twilight 6:33 AM EST 6:04 PM EST
Nautical Twilight 6:03 AM EST 6:34 PM EST
Astronomical Twilight 5:33 AM EST 7:05 PM EST
Moon 4:35 AM EST 3:02 PM EST
Length of Visible Light 11h 30m
Length of Day
10h 37m
Waning Crescent, 9% of the Moon is Illuminated
Feb 7
Waning Crescent
Feb 10
New
Feb 17
First Quarter
Feb 25
Full
Mar 4
Last Quarter

Hourly Weather History & Observations

Time (EST) Temp. Windchill Dew Point Humidity Pressure Visibility Wind Dir Wind Speed Gust Speed Precip Events Conditions
12:54 AM 43.0 °F 38.2 °F 37.0 °F 80% 30.32 in 9.0 mi NNE 8.1 mph - N/A   Clear
1:54 AM 42.1 °F 37.7 °F 37.0 °F 82% 30.33 in 8.0 mi NNE 6.9 mph - N/A   Clear
2:54 AM 44.1 °F 39.0 °F 37.9 °F 79% 30.32 in 8.0 mi NNE 9.2 mph - N/A   Clear
3:54 AM 44.1 °F 38.1 °F 37.9 °F 79% 30.32 in 9.0 mi NE 11.5 mph - N/A   Clear
4:54 AM 45.0 °F 38.9 °F 37.0 °F 74% 30.33 in 10.0 mi NE 12.7 mph - N/A   Clear
5:54 AM 44.1 °F 38.1 °F 35.1 °F 71% 30.34 in 10.0 mi NE 11.5 mph - N/A   Clear
6:54 AM 44.1 °F 38.6 °F 35.1 °F 71% 30.34 in 10.0 mi NE 10.4 mph - N/A   Clear
7:54 AM 45.0 °F 40.1 °F 36.0 °F 71% 30.35 in 10.0 mi NE 9.2 mph - N/A   Clear
8:54 AM 48.9 °F - 37.9 °F 66% 30.36 in 10.0 mi ENE 10.4 mph - N/A   Clear
9:54 AM 53.1 °F - 39.0 °F 59% 30.36 in 10.0 mi ENE 13.8 mph - N/A   Clear
10:54 AM 55.0 °F - 39.0 °F 55% 30.37 in 10.0 mi ENE 17.3 mph - N/A   Clear
11:54 AM 55.0 °F - 39.9 °F 57% 30.35 in 10.0 mi NE 15.0 mph - N/A   Clear
12:54 PM 54.0 °F - 39.0 °F 57% 30.31 in 10.0 mi ENE 13.8 mph - N/A   Clear
1:54 PM 54.0 °F - 39.0 °F 57% 30.28 in 10.0 mi ENE 13.8 mph - N/A   Clear
2:54 PM 53.1 °F - 39.0 °F 59% 30.27 in 10.0 mi ENE 15.0 mph - N/A   Clear
3:54 PM 53.1 °F - 39.9 °F 61% 30.27 in 10.0 mi ENE 13.8 mph - N/A   Mostly Cloudy
4:54 PM 52.0 °F - 39.9 °F 63% 30.25 in 10.0 mi NE 13.8 mph - N/A   Mostly Cloudy
5:54 PM 52.0 °F - 39.9 °F 63% 30.23 in 10.0 mi ENE 12.7 mph - N/A   Overcast
6:54 PM 52.0 °F - 39.9 °F 63% 30.22 in 10.0 mi NE 13.8 mph - N/A   Overcast
7:54 PM 52.0 °F - 41.0 °F 66% 30.20 in 10.0 mi ENE 12.7 mph - N/A   Overcast
8:54 PM 53.1 °F - 41.0 °F 64% 30.17 in 10.0 mi ENE 12.7 mph - N/A   Overcast
9:54 PM 53.1 °F - 43.0 °F 69% 30.14 in 10.0 mi NE 17.3 mph - N/A   Overcast
10:54 PM 53.1 °F - 43.0 °F 69% 30.10 in 10.0 mi ENE 19.6 mph 26.5 mph 0.00 in   Overcast
11:54 PM 52.0 °F - 45.0 °F 77% 30.06 in 10.0 mi ENE 19.6 mph - 0.00 in Rain Light Rain